Content
SEND FEEDBACK

Daily
Averages
Monthly
Summary
United States of America

CHILLICOTHE, IOWA


Home > North America > United States > Iowa
Elevation: 840 feet     Latitude: 41 01N     Longitude: 092 27W

WEATHER
 
SELECT A DAY
Number of Records: 373,397;   Date Range: 1/1/95 - 7/20/14
 
SHARE

PRINT THIS DATA

[ ← Previous Day ]
WEATHER ALMANAC - JANUARY 31, 2013
[ Next Day → ]
[ °C ]   °F
Weather ElementAverageHighLow
Temperature7.3 °F18 °F (12:53 am)1 °F (11:53 pm)
Dewpoint-0.7 °F10 °F (12:53 am)-8 °F (11:53 pm)
Humidity70 %79 % (7:27 am)66 % (5:14 pm)
Barometer30.13 in30.41 in (11:53 pm)29.87 in (2:04 am)
Wind Speed17.4 mph24.2 mph (11:53 am)
Wind Gust33.4 mph (4:13 pm)
Weather ElementAverage
Visibility6.1 mi
Wind DirectionWNW (299.4 °)

Weather ElementTotal
Precipitation---
Heating Degree Days55.5 (Base 65)
Averaged from 49 records on January 31, 2013
WEATHER CONDITIONS BREAKOUT
WIND DIRECTION BREAKOUT
WEATHER BY HOUR - JANUARY 31, 2013
[ °C ]   °F
Local TimeTemperatureDewpointHumidityBarometerVisibilityWind DirectionWind SpeedGust SpeedPrecipitationEventsConditions
12:53 AM18.0 °F10.0 °F71 %29.89 in10.0 miWNW (300°)15.0 mph0.00 inOvercast
1:53 AM15.1 °F7.0 °F70 %29.91 in10.0 miWNW (290°)12.7 mphMostly Cloudy
2:04 AM14.0 °F6.8 °F73 %29.87 in10.0 miWNW (290°)13.8 mph20.7 mphScattered Clouds
2:53 AM12.9 °F6.1 °F74 %29.92 in10.0 miWNW (290°)12.7 mphClear
3:53 AM12.0 °F5.0 °F73 %29.92 in10.0 miWest (280°)11.5 mphClear
4:53 AM10.0 °F3.9 °F76 %29.94 in10.0 miWNW (290°)16.1 mphClear
5:53 AM9.0 °F1.9 °F73 %29.95 in10.0 miWNW (300°)13.8 mphClear
6:16 AM8.6 °F1.4 °F73 %29.91 in10.0 miWNW (290°)15.0 mphMostly Cloudy
6:53 AM8.1 °F1.9 °F76 %29.98 in10.0 miWNW (300°)12.7 mphOvercast
7:27 AM6.8 °F1.4 °F79 %29.95 in10.0 miNW (310°)17.3 mphOvercast
7:53 AM6.1 °F-0.9 °F73 %30.01 in10.0 miNW (310°)19.6 mphOvercast
8:53 AM6.1 °F-2.9 °F67 %30.05 in10.0 miWNW (300°)19.6 mph26.5 mphOvercast
9:53 AM7.0 °F-0.9 °F70 %30.08 in10.0 miNW (310°)17.3 mphOvercast
10:10 AM6.8 °F-0.4 °F72 %30.04 in6.0 miNW (310°)16.1 mphHaze
10:53 AM7.0 °F-2.0 °F67 %30.12 in9.0 miWNW (300°)19.6 mphOvercast
11:23 AM6.8 °F-2.2 °F67 %30.08 in10.0 miWNW (300°)19.6 mphOvercast
11:53 AM7.0 °F-2.0 °F67 %30.14 in6.0 miWNW (300°)24.2 mph28.8 mphHaze
12:14 PM8.6 °F-0.4 °F67 %30.09 in2.5 miNW (310°)20.7 mph29.9 mph0.00 inSnowLight Snow
12:29 PM8.6 °F-0.4 °F67 %30.09 in1.8 miNW (310°)21.9 mph27.6 mph0.00 inSnowLight Snow
12:43 PM8.6 °F1.4 °F73 %30.09 in2.0 miNW (310°)16.1 mph26.5 mph0.00 inSnowLight Snow
12:53 PM8.1 °F1.0 °F73 %30.15 in3.0 miNW (310°)15.0 mph24.2 mph0.00 inSnowLight Snow
1:03 PM8.6 °F-0.4 °F67 %30.10 in2.5 miWNW (300°)17.3 mph23.0 mph0.00 inSnowLight Snow
1:12 PM8.6 °F1.4 °F73 %30.10 in1.2 miWNW (300°)18.4 mph0.00 inSnowLight Snow
1:34 PM8.6 °F-0.4 °F67 %30.11 in4.0 miWNW (300°)21.9 mph28.8 mph0.00 inHaze
2:05 PM8.6 °F-0.4 °F67 %30.11 in2.5 miWNW (300°)20.7 mph28.8 mph0.00 inSnowLight Snow
2:21 PM8.6 °F1.4 °F73 %30.12 in1.8 miWNW (290°)19.6 mph26.5 mph0.00 inSnowLight Snow
2:26 PM8.6 °F-0.4 °F67 %30.12 in3.0 miWNW (290°)19.6 mph25.3 mph0.00 inSnowLight Snow
2:49 PM8.6 °F-0.4 °F67 %30.14 in2.5 miWNW (300°)23.0 mph32.2 mph0.00 inHaze
2:53 PM8.1 °F0.0 °F70 %30.19 in2.0 miWNW (300°)21.9 mph32.2 mph0.00 inSnowLight Snow
3:02 PM8.6 °F-0.4 °F67 %30.15 in1.2 miWNW (300°)18.4 mph31.1 mph0.00 inSnowLight Snow
3:17 PM6.8 °F1.4 °F79 %30.16 in0.5 miNW (310°)19.6 mph0.00 inSnowSnow
3:24 PM6.8 °F1.4 °F79 %30.16 in0.2 miNW (310°)20.7 mph26.5 mph0.00 inSnowHeavy Snow
3:39 PM6.8 °F-0.4 °F72 %30.16 in1.0 miNW (310°)21.9 mph32.2 mph0.00 inSnowLight Snow
3:53 PM7.0 °F-2.0 °F67 %30.22 in1.8 miWNW (290°)23.0 mph31.1 mph0.00 inHaze
4:03 PM6.8 °F-2.2 °F67 %30.18 in2.0 miWNW (300°)19.6 mph28.8 mph0.00 inSnowLight Snow
4:13 PM6.8 °F-2.2 °F67 %30.18 in1.5 miWNW (290°)19.6 mph33.4 mph0.00 inSnowLight Snow
4:53 PM6.1 °F-2.0 °F69 %30.25 in2.0 miNW (310°)20.7 mph27.6 mph0.00 inHaze
5:09 PM5.0 °F-2.2 °F72 %30.20 in1.8 miWNW (300°)19.6 mph28.8 mph0.00 inSnowLight Snow
5:14 PM5.0 °F-4.0 °F66 %30.21 in3.0 miNW (310°)21.9 mph29.9 mph0.00 inHaze
5:35 PM3.2 °F-5.8 °F66 %30.22 in7.0 miNW (310°)17.3 mph26.5 mph0.00 inScattered Clouds
5:44 PM3.2 °F-5.8 °F66 %30.22 in8.0 miWNW (300°)15.0 mph26.5 mph0.00 inMostly Cloudy
5:53 PM3.9 °F-4.0 °F70 %30.29 in10.0 miWNW (300°)12.7 mph0.00 inMostly Cloudy
6:53 PM3.9 °F-5.1 °F66 %30.32 in10.0 miWNW (290°)13.8 mphMostly Cloudy
7:53 PM3.0 °F-4.0 °F73 %30.33 in10.0 miWNW (290°)13.8 mphOvercast
8:27 PM3.2 °F-5.8 °F66 %30.28 in10.0 miWNW (290°)11.5 mphPartly Cloudy
8:53 PM3.0 °F-6.0 °F66 %30.35 in10.0 miWNW (290°)12.7 mphClear
9:53 PM1.9 °F-6.0 °F69 %30.37 in10.0 miWNW (290°)15.0 mphClear
10:53 PM1.9 °F-7.1 °F66 %30.39 in10.0 miWNW (300°)13.8 mphClear
11:53 PM1.0 °F-8.0 °F66 %30.41 in10.0 miWNW (290°)11.5 mphClear
Hourly data recorded from KOTM, located miles away from Chillicothe, Iowa







STORIES FROM OUR PARTNERS